Newark, OH

7:51 PM EDT on August 28, 2016 (GMT -0400)
Newark Heath

Weather History for KVTA - April, 2014

Change the Weather History Date:

Saturday, April 5, 2014

  Actual Average Record
Temperature  
Mean Temperature 40 °F -  
Max Temperature 48 °F 56 °F 84 °F (1947)
Min Temperature 30 °F 35 °F 20 °F (1939)
Degree Days  
Heating Degree Days 26    
Moisture  
Dew Point 27 °F    
Average Humidity 61    
Maximum Humidity 85    
Minimum Humidity 44    
Precipitation  
Precipitation 0.00 in - - ()
Sea Level Pressure  
Sea Level Pressure 30.09 in    
Wind  
Wind Speed 15 mph (WNW)    
Max Wind Speed 28 mph    
Max Gust Speed 38 mph    
Visibility 10 miles    
Events      
Averages and records for this station are not official NWS values.
T = Trace of Precipitation, MM = Missing Value Source: NWS Daily Summary

Daily Weather History Graph

Daily Weather History Graph

Search for Another Location

Airport or City:

Trip Planner

Search our weather history database for the weather conditions in past years. The results will help you decide how hot, cold, wet, or windy it might be!

Date:

Astronomy

Apr. 05, 2014 Rise Set
Actual Time 7:07 AM EDT 7:58 PM EDT
Civil Twilight 6:39 AM EDT 8:25 PM EDT
Nautical Twilight 6:07 AM EDT 8:58 PM EDT
Astronomical Twilight 5:33 AM EDT 9:32 PM EDT
Moon 11:14 AM EDT (4/5) 1:07 AM EDT (4/5)
Length of Visible Light 13h 45m
Length of Day
12h 50m
Waxing Crescent, 34% of the Moon is Illuminated
Apr 5
Waxing Crescent
Apr 7
First Quarter
Apr 15
Full
Apr 22
Last Quarter
Apr 29
New

Hourly Weather History & Observations

Time (EDT) Temp. Windchill Dew Point Humidity Pressure Visibility Wind Dir Wind Speed Gust Speed Precip Events Conditions
12:54 AM 39.9 °F 30.5 °F 28.0 °F 63% 29.93 in 10.0 mi West 19.6 mph 26.5 mph N/A   Overcast
1:23 AM 39.9 °F 29.0 °F 27.0 °F 60% 29.93 in 10.0 mi West 26.5 mph 36.8 mph N/A   Overcast
1:31 AM 39.9 °F 28.8 °F 27.0 °F 60% 29.93 in 10.0 mi West 27.6 mph 34.5 mph N/A   Overcast
1:54 AM 39.0 °F 28.8 °F 26.1 °F 60% 29.94 in 10.0 mi West 21.9 mph 29.9 mph N/A   Overcast
2:54 AM 37.9 °F 26.8 °F 24.1 °F 57% 29.96 in 10.0 mi West 24.2 mph 38.0 mph N/A   Overcast
3:54 AM 37.9 °F 30.0 °F 25.0 °F 60% 29.97 in 10.0 mi West 12.7 mph 21.9 mph N/A   Overcast
4:54 AM 37.9 °F 30.0 °F 25.0 °F 60% 29.99 in 10.0 mi West 12.7 mph 21.9 mph N/A   Overcast
5:54 AM 37.0 °F 28.9 °F 26.1 °F 65% 30.01 in 10.0 mi West 12.7 mph - N/A   Overcast
6:54 AM 37.0 °F 28.5 °F 25.0 °F 62% 30.04 in 10.0 mi WNW 13.8 mph 25.3 mph N/A   Overcast
7:54 AM 37.0 °F 28.9 °F 26.1 °F 65% 30.06 in 10.0 mi West 12.7 mph - N/A   Overcast
8:13 AM 37.9 °F 30.9 °F 27.0 °F 65% 30.05 in 10.0 mi West 10.4 mph - N/A   Overcast
8:42 AM 37.9 °F 29.6 °F 27.0 °F 65% 30.06 in 10.0 mi West 13.8 mph - N/A   Overcast
8:54 AM 37.9 °F 30.0 °F 27.0 °F 65% 30.09 in 10.0 mi NW 12.7 mph - N/A   Overcast
9:38 AM 37.9 °F 29.6 °F 27.0 °F 65% 30.09 in 10.0 mi NW 13.8 mph - N/A   Overcast
9:54 AM 37.9 °F 30.9 °F 27.0 °F 65% 30.12 in 10.0 mi WNW 10.4 mph - N/A   Overcast
10:54 AM 37.9 °F 30.0 °F 25.0 °F 60% 30.14 in 10.0 mi NW 12.7 mph - N/A   Overcast
11:54 AM 39.9 °F 32.9 °F 26.1 °F 58% 30.16 in 10.0 mi WNW 11.5 mph - N/A   Overcast
12:54 PM 41.0 °F 33.1 °F 26.1 °F 55% 30.17 in 10.0 mi West 15.0 mph 20.7 mph N/A   Overcast
1:37 PM 42.1 °F 36.1 °F 26.1 °F 53% 30.15 in 10.0 mi WNW 10.4 mph 21.9 mph N/A   Overcast
1:54 PM 41.0 °F 37.1 °F 26.1 °F 55% 30.17 in 10.0 mi Variable 5.8 mph - N/A   Mostly Cloudy
2:54 PM 45.0 °F 39.3 °F 27.0 °F 49% 30.17 in 10.0 mi WNW 11.5 mph 20.7 mph N/A   Overcast
3:54 PM 46.9 °F - 27.0 °F 46% 30.16 in 10.0 mi NW 9.2 mph - N/A   Mostly Cloudy
4:54 PM 46.9 °F - 27.0 °F 46% 30.16 in 10.0 mi NNW 8.1 mph - N/A   Scattered Clouds
5:54 PM 46.0 °F 41.4 °F 26.1 °F 46% 30.16 in 10.0 mi WNW 9.2 mph - N/A   Mostly Cloudy
6:54 PM 46.9 °F - 26.1 °F 44% 30.17 in 10.0 mi NW 8.1 mph - N/A   Clear
7:54 PM 43.0 °F 41.3 °F 25.0 °F 49% 30.17 in 10.0 mi NNW 3.5 mph - N/A   Clear
8:54 PM 39.0 °F - 28.9 °F 67% 30.20 in 10.0 mi Calm Calm - N/A   Clear
9:54 PM 35.1 °F - 30.0 °F 82% 30.22 in 10.0 mi Calm Calm - N/A   Clear
10:54 PM 33.1 °F - 28.9 °F 85% 30.21 in 10.0 mi Calm Calm - N/A   Clear
11:54 PM 30.9 °F - 27.0 °F 85% 30.22 in 10.0 mi Calm Calm - N/A   Clear